TIME,DELAY(SENSOR),PRES,OXYGEN,RAWTEMP,T(OPTODE),TCPHASE,FLUOR,BETA(BETA700),BETA(BETA412),BETA(BETA440),CDOM,C(CSC),ED(ED411.90),ED(ED443.80),ED(ED489.40),ED(ED554.70),LU(LU412.20),LU(LU443.80),LU(LU489.40),LU(LU555.00),COMP,TILTX,TILTY,CHECK
1366842621,5803,874.7700195312500000,189.8341064453125000,497.4973144531250000,7.6071181297302250,38.4991607666015600,52,103,96,80,80,11206,2146960457,2147517476,2147296054,2147509083,2147085613,2146919588,2147717613,2147120877,2861,-1,8,31725
1366846217,5805,960.9500122070312000,236.9851074218750000,545.2852172851562000,6.1173458099365230,36.6119003295898440,53,114,97,80,81,11206,2146960457,2147520137,2147300480,2147517723,2147087021,2146918838,2147720859,2147118628,3429,-1,8,14207
1366849817,5801,985.2100219726562000,243.5762939453125000,553.7761840820312000,5.8508567810058590,36.4278602600097660,51,120,102,84,81,11176,2146963108,2147518701,2147297929,2147518619,2147087652,2146913618,2147729389,2147115163,2642,-1,8,2874
1366853417,5806,986.5300292968750000,247.5289001464843800,555.0535278320312000,5.8107218742370605,36.2537307739257800,52,125,101,82,81,11171,2146962486,2147516498,2147295899,2147519771,2147089197,2146916516,2147726902,2147120137,766,-1,8,39413
1366857017,5805,998.3599853515625000,248.3195953369140600,555.0645751953125000,5.8103709220886230,36.2143707275390600,52,120,102,83,81,11174,2146961280,2147521133,2147298998,2147522203,2147082468,2146911670,2147728100,2147119872,2837,0,8,44754
1366860617,5807,998.8200073242188000,248.9960021972656200,554.7249755859375000,5.8210449218750000,36.1756286621093750,52,119,101,83,81,11162,2146959021,2147521938,2147298093,2147520512,2147082825,2146920859,2147728320,2147118774,3380,0,8,58041
1366864217,5806,999.0599975585938000,249.0782928466797000,555.1118774414062000,5.8088841438293460,36.1782188415527340,52,121,101,83,81,11169,2146963739,2147518427,2147300013,2147519414,2147085312,2146913554,2147729526,2147120228,3532,-1,8,23153
1366867817,5804,1003.1500244140625000,246.4013977050781200,555.2827148437500000,5.8035159111022950,36.3141708374023440,52,120,102,83,80,11163,2146963401,2147516379,2147299611,2147517156,2147086226,2146915236,2147726765,2147118070,3547,-1,8,59132
1366871417,5809,1002.3699951171875000,245.0635986328125000,555.7310180664062000,5.7894268035888670,36.3889083862304700,52,127,101,84,81,11161,2146963894,2147516242,2147296950,2147521170,2147083309,2146917092,2147728310,2147118820,75,0,8,35914
1366875017,5803,1002.7700195312500000,249.2994995117187500,557.1528930664062000,5.7447218894958500,36.2046699523925800,52,127,102,83,81,11156,2146964653,2147518838,2147299702,2147520155,2147084397,2146915227,2147727926,2147119634,3413,-1,8,47534
1366878617,5805,1001.7600097656250000,250.9216003417968800,557.4332275390625000,5.7359089851379395,36.1302299499511700,51,115,99,84,81,11164,2146965129,2147519469,2147300489,2147520493,2147086701,2146907977,2147726537,2147120146,116,-1,8,34055
1366882217,5807,996.5300292968750000,249.6696014404297000,558.3189086914062000,5.7080497741699220,36.2076110839843750,53,113,100,80,81,11163,2146962825,2147518966,2147298989,2147523538,2147089664,2146919049,2147729316,2147115986,3080,-1,8,29162
1366885817,5807,1001.8599853515625000,251.6484985351562500,558.1461791992188000,5.7134819030761720,36.1072807312011700,52,122,99,83,80,11155,2146961261,2147515949,2147299337,2147519625,2147084955,2146917906,2147727917,2147121325,676,-1,8,31442
1366889417,5807,1003.2500000000000000,253.6716003417968800,558.0081787109375000,5.7178230285644530,36.0066490173339840,52,125,100,82,81,11144,2146962843,2147520576,2147299437,2147522139,2147084818,2146915099,2147729536,2147119168,544,-1,8,52091
1366893017,5808,1001.8400268554688000,249.7205963134765600,558.4719238281250000,5.7032380104064940,36.2074890136718750,53,115,101,79,81,11162,2146959817,2147519305,2147300342,2147521462,2147085741,2146917074,2147728283,2147119113,95,-1,8,60019
1366896617,5804,998.7000122070312000,254.0314941406250000,558.4943847656250000,5.7025279998779300,35.9985694885253900,52,113,99,81,81,11161,2146960896,2147520822,2147296877,2147520274,2147084608,2146921225,2147729901,2147119405,3383,-1,8,23408
1366900217,5807,999.3300170898438000,253.8359069824218800,558.8695068359375000,5.6907291412353520,36.0149192810058600,53,118,100,81,82,11162,2146959872,2147517942,2147299126,2147520960,2147086281,2146916653,2147730733,2147114880,3409,-1,8,36313
1366903817,5806,1004.5399780273438000,255.3392944335937500,558.4755249023438000,5.7031250000000000,35.9350700378418000,51,114,101,80,80,11154,2146964132,2147517092,2147300297,2147518372,2147088192,2146918308,2147727168,2147118189,3530,-1,8,38083
1366907417,5808,998.5800170898438000,254.4620971679687500,559.4846191406250000,5.6713771820068360,35.9958610534668000,52,107,98,83,80,11161,2146964196,2147520073,2147299986,2147519862,2147087588,2146918802,2147730797,2147116827,3360,-1,8,36911
1366911017,5805,994.6699829101562000,254.8683013916015600,560.3154296875000000,5.6452331542968750,35.9909400939941400,53,108,97,80,80,11127,2146962176,2147518656,2147299163,2147521426,2147086573,2146917275,2147725997,2147117403,3387,-1,8,16243
1366914617,5806,994.0000000000000000,258.1557922363281000,561.4520874023438000,5.6094551086425780,35.8549880981445300,51,107,98,79,80,11127,2146960621,2147520704,2147296859,2147519341,2147088429,2146914578,2147731986,2147116900,3171,-1,8,19323
1366918217,5804,992.7999877929688000,257.1041870117187500,563.6478271484375000,5.5403118133544920,35.9454383850097660,52,106,99,80,80,11117,2146961755,2147517184,2147299602,2147522925,2147087177,2146911588,2147730468,2147120429,3335,-1,8,21123
1366921817,5805,992.1500244140625000,256.9872131347656000,564.2932739257812000,5.5199790000915530,35.9626312255859400,52,127,99,79,80,11120,2146961691,2147522349,2147297206,2147523876,2147085010,2146914468,2147730898,2147115264,3160,0,8,60666
1366925417,5809,993.1599731445312000,263.7603149414062500,567.8477172851562000,5.4079489707946780,35.7093009948730500,52,118,98,81,80,11104,2146962633,2147517851,2147299136,2147524269,2147087232,2146919323,2147730358,2147119963,85,-1,8,15679
1366929017,5807,991.5399780273438000,263.1359863281250000,567.9896850585938000,5.4034729003906250,35.7407798767089840,52,113,100,82,81,11112,2146961974,2147518491,2147303588,2147521563,2147086756,2146911341,2147726162,2147117440,346,0,8,51041
1366932617,5804,994.7899780273438000,263.1694030761719000,568.6729736328125000,5.3819217681884770,35.7518081665039060,52,114,99,81,80,11118,2146963355,2147521947,2147301961,2147524059,2147086601,2146915922,2147731035,2147121051,3483,-1,8,20480
1366936217,5809,995.7299804687500000,265.3765869140625000,568.5579833984375000,5.3855509757995605,35.6475906372070300,52,114,105,81,80,11121,2146962349,2147518848,2147301796,2147523894,2147087881,2146916498,2147727780,2147117878,74,-1,8,22412
1366939817,5807,993.5399780273438000,262.0741882324219000,569.2728271484375000,5.3630027770996090,35.8140907287597660,52,127,100,81,80,11112,2146961161,2147519670,2147299812,2147522697,2147087067,2146917275,2147733120,2147118921,604,-1,8,45797
1366943417,5805,994.7500000000000000,261.7030944824219000,568.6697998046875000,5.3820247650146480,35.8200416564941400,53,110,99,83,80,11109,2146961179,2147520640,2147301522,2147523940,2147085257,2146917229,2147734445,2147118080,570,-1,8,64057
1366947017,5805,993.6300048828125000,266.3511962890625000,570.2440185546875000,5.3323612213134770,35.6337394714355500,52,126,101,79,80,11110,2146964050,2147519716,2147297600,2147524498,2147084864,2146914514,2147732141,2147117458,3463,-1,8,41502
1366950617,5806,995.5599975585938000,268.8573913574219000,569.6124267578125000,5.3522911071777340,35.5078811645507800,52,106,99,81,80,11107,2146960292,2147518107,2147300480,2147520493,2147085686,2146919113,2147730038,2147121216,3365,0,8,6163
1366954217,5805,991.8099975585938000,268.3026123046875000,570.9755859375000000,5.3092751502990720,35.5581703186035160,51,107,97,80,81,11113,2146963126,2147518838,2147300096,2147521993,2147085293,2146913636,2147732617,2147120585,3427,-1,8,60002
1366957817,5807,988.1599731445312000,267.6682128906250000,571.0761718750000000,5.3061008453369140,35.5889816284179700,52,108,98,79,80,11113,2146960420,2147521728,2147300050,2147523218,2147085202,2146920292,2147730742,2147121801,501,-1,8,58964
1366961417,5809,985.9899902343750000,269.7210083007812500,573.7968750000000000,5.2202010154724120,35.5454101562500000,53,105,97,79,78,11111,2146961243,2147521746,2147302482,2147523584,2147086089,2146918052,2147733705,2147121142,80,-1,8,33943
1366965017,5805,986.8400268554688000,270.5743103027344000,573.3897705078125000,5.2330608367919920,35.4999198913574200,52,107,98,80,79,11111,2146960164,2147522185,2147301001,2147524425,2147088804,2146919131,2147733677,2147118811,170,-1,8,62849
1366968617,5809,984.9699707031250000,271.8587951660156000,574.9630737304688000,5.1833629608154300,35.4706115722656250,52,105,98,80,81,11099,2146960950,2147521472,2147301522,2147521600,2147086902,2146913618,2147731830,2147119396,3590,-1,8,27910
1366972217,5806,984.1900024414062000,271.1072082519531000,577.0139770507812000,5.1185531616210940,35.5422401428222660,52,111,99,79,81,11096,2146961088,2147519561,2147301366,2147526765,2147086665,2146914413,2147730468,2147120566,470,0,8,49172
1366975817,5806,984.9699707031250000,276.4241943359375000,577.4788818359375000,5.1038551330566410,35.3136711120605500,52,110,99,80,80,11097,2146960274,2147519753,2147299556,2147523830,2147088987,2146921115,2147730779,2147118537,247,0,8,39907
1366979417,5807,986.4799804687500000,273.9010925292969000,577.8306274414062000,5.0927348136901855,35.4324188232421900,51,352,99,80,79,11098,2146964635,2147520192,2147300452,2147523949,2147087140,2146920411,2147731638,2147119113,3546,0,8,46643
1366983017,5808,985.7800292968750000,271.4888000488281000,577.9702148437500000,5.0883240699768070,35.5434112548828100,52,110,98,80,79,11098,2146962441,2147516434,2147300086,2147522221,2147083812,2146916370,2147728850,2147120082,325,0,8,14943
1366986617,5805,986.7600097656250000,276.7287902832031000,577.9802246093750000,5.0880069732666020,35.3097190856933600,52,106,99,79,80,11100,2146959021,2147518180,2147300635,2147524032,2147084434,2146925915,2147729865,2147118070,3377,-1,8,41173
1366986954,5805,98.0000000000000000,276.8568115234375000,577.9456787109375000,5.0890941619873050,35.3038902282714840,52,106,98,79,80,11142,2146963245,2147519396,2147298770,2147520256,2147087853,2146916553,2147733979,2147121938,3182,0,8,20223
